TimePDT,TemperatureF,Dew PointF,Humidity,Sea Level PressureIn,VisibilityMPH,Wind Direction,Wind SpeedMPH,Gust SpeedMPH,PrecipitationIn,Events,Conditions,WindDirDegrees,DateUTC
12:56 AM,39.9,32.0,73,30.13,10.0,Calm,Calm,-,N/A,,Clear,0,2013-06-13 07:56:00
1:56 AM,37.0,30.0,76,30.12,10.0,Calm,Calm,-,N/A,,Scattered Clouds,0,2013-06-13 08:56:00
2:56 AM,37.0,30.9,79,30.12,10.0,Calm,Calm,-,N/A,,Clear,0,2013-06-13 09:56:00
3:56 AM,35.1,30.0,82,30.13,10.0,South,3.5,-,N/A,,Partly Cloudy,170,2013-06-13 10:56:00
4:56 AM,37.0,30.0,76,30.12,10.0,SSE,4.6,-,N/A,,Overcast,160,2013-06-13 11:56:00
5:56 AM,37.9,30.9,76,30.14,10.0,South,5.8,-,N/A,,Mostly Cloudy,170,2013-06-13 12:56:00
6:56 AM,43.0,32.0,65,30.14,10.0,South,3.5,-,N/A,,Partly Cloudy,180,2013-06-13 13:56:00
7:56 AM,46.9,36.0,66,30.14,10.0,Calm,Calm,-,0.00,,Overcast,0,2013-06-13 14:56:00
8:56 AM,48.9,36.0,61,30.14,10.0,WNW,3.5,-,N/A,,Mostly Cloudy,300,2013-06-13 15:56:00
9:56 AM,52.0,36.0,54,30.14,10.0,NNW,6.9,-,N/A,,Overcast,340,2013-06-13 16:56:00
10:56 AM,55.0,33.1,43,30.13,10.0,WNW,12.7,17.3,N/A,,Mostly Cloudy,300,2013-06-13 17:56:00
11:56 AM,57.0,33.1,40,30.15,10.0,WNW,16.1,23.0,N/A,,Mostly Cloudy,300,2013-06-13 18:56:00
12:56 PM,59.0,32.0,36,30.15,10.0,WNW,12.7,21.9,N/A,,Clear,290,2013-06-13 19:56:00
1:56 PM,60.1,33.1,36,30.15,10.0,WNW,9.2,19.6,N/A,,Mostly Cloudy,300,2013-06-13 20:56:00
2:56 PM,61.0,30.9,32,30.15,10.0,WNW,13.8,23.0,N/A,,Mostly Cloudy,290,2013-06-13 21:56:00
3:56 PM,62.1,32.0,32,30.17,10.0,West,18.4,29.9,N/A,,Partly Cloudy,280,2013-06-13 22:56:00
4:56 PM,57.9,34.0,41,30.18,10.0,WNW,17.3,27.6,N/A,,Partly Cloudy,300,2013-06-13 23:56:00
5:56 PM,57.9,34.0,41,30.18,10.0,WNW,20.7,28.8,N/A,,Clear,300,2013-06-14 00:56:00
6:56 PM,55.0,35.1,47,30.19,10.0,WNW,17.3,27.6,N/A,,Clear,300,2013-06-14 01:56:00
7:56 PM,53.1,35.1,50,30.21,10.0,NW,13.8,-,N/A,,Clear,310,2013-06-14 02:56:00
8:56 PM,50.0,36.0,59,30.22,10.0,WNW,12.7,-,N/A,,Clear,290,2013-06-14 03:56:00
9:56 PM,48.9,37.0,64,30.23,10.0,WNW,11.5,-,N/A,,Clear,300,2013-06-14 04:56:00
10:56 PM,46.9,36.0,66,30.24,10.0,NNW,5.8,-,N/A,,Clear,340,2013-06-14 05:56:00
11:56 PM,45.0,36.0,71,30.25,10.0,WSW,4.6,-,N/A,,Clear,240,2013-06-14 06:56:00